TheGetRank SiteMap Page 2850
Home 2800 2801 2802 2803 2804 2805 2806 2807 2808 2809 2810 2811 2812 2813 2814 2815 2816 2817 2818 2819 2820 2821 2822 2823 2824 2825 2826 2827 2828 2829 2830 2831 2832 2833 2834 2835 2836 2837 2838 2839 2840 2841 2842 2843 2844 2845 2846 2847 2848 2849 2850 2851 2852 2853 2854 2855 2856 2857 2858 2859 2860 2861 2862 2863 2864 2865 2866 2867 2868 2869 2870 2871 2872 2873 2874 2875 2876 2877 2878 2879 2880 2881 2882 2883 2884 2885 2886 2887 2888 2889 2890 2891 2892 2893 2894 2895 2896 2897 2898 2899 2900
S.NO. Website Pagerank Alexa Rank Last Updated
2849000 harmoniemassagen.de 1 1326376 2011-09-27 22:47:13
2849001 cxt.bsarifle10.wordpress.com 0 No Rank 2011-09-27 22:47:14
2849002 harleyservicemanuals.com 0 No Rank 2011-09-27 22:47:16
2849003 harleybailbonds.com 0 No Rank 2011-09-27 22:47:19
2849004 harinis.com 0 26405375 2011-09-27 22:47:23
2849005 ampersandapparel.com 0 No Rank 2011-09-27 22:47:25
2849006 anandvanresorts.com 1 1075939 2011-09-27 22:47:26
2849007 masseriasantangelo.it 3 13003520 2011-09-27 22:47:28
2849008 anandathaiyogamassage.co.uk 1 No Rank 2011-09-27 22:47:29
2849009 hardyschool.com 4 24161094 2011-09-27 22:47:30
2849010 anannystouch.com 1 No Rank 2011-09-27 22:47:37
2849011 dfi.esmartweb.com 0 545303 2011-09-27 22:47:40
2849012 anangelspoketome.blog.com 0 1087 2011-09-27 22:47:44
2849013 hardwayacres.com 0 No Rank 2011-09-27 22:47:45
2849014 hardkore.de 0 20511003 2011-09-27 22:47:51
2849015 meeshapeving2slim.igetweb.com 2 14771 2011-09-27 22:47:51
2849016 anano.ge 3 26962186 2011-09-27 22:47:53
2849017 bsarifle10.wordpress.com 0 No Rank 2011-09-27 22:47:55
2849018 anapurma-fashion.com 2 24468394 2011-09-27 22:48:03
2849019 enklave.insanejournal.com 0 5036 2011-09-27 22:48:06
2849020 anantpublicity.com 0 No Rank 2011-09-27 22:48:17
2849021 anathallo.com 4 16632232 2011-09-27 22:48:30
2849022 anarchix.freehostia.com 3 8043 2011-09-27 22:48:45
2849023 best-bonechina.info 0 No Rank 2011-09-27 22:48:59
2849024 anavigator.narod.ru 0 243 2011-09-27 22:48:59
2849025 gongzuofua.com 0 No Rank 2011-09-27 22:49:07
2849026 anatomyofaclassic.com 3 7913173 2011-09-27 22:49:13
2849027 ancasterairportlimo.com 0 26910421 2011-09-27 22:49:25
2849028 ancestryfoundation.org 4 327264 2011-09-27 22:49:37
2849029 wow.bsarifle10.wordpress.com 0 No Rank 2011-09-27 22:49:46
2849030 anchorageservicedapartments.com 2 3121285 2011-09-27 22:49:53
2849031 hardingloevner.com 3 8093435 2011-09-27 22:49:54
2849032 hard-drive-recovery-software.com 3 6210688 2011-09-27 22:50:00
2849033 harapker.hu 1 No Rank 2011-09-27 22:50:03
2849034 happyhourmagonline.com 3 1070762 2011-09-27 22:50:07
2849035 articlespectrum.com 1 15502645 2011-09-27 22:50:08
2849036 anchorsalesinc.com 0 No Rank 2011-09-27 22:50:09
2849037 homepager.tripod.bsarifle10.wordpress.com 0 No Rank 2011-09-27 22:50:10
2849038 johannesburg.bsarifle10.wordpress.com 0 No Rank 2011-09-27 22:50:10
2849039 hansonhomesinc.com 1 No Rank 2011-09-27 22:50:11
2849040 hannesblog.dk 2 9011593 2011-09-27 22:50:13
2849041 hannekommen.nl 0 No Rank 2011-09-27 22:50:15
2849042 hannahandbrothers.com.ar 0 No Rank 2011-09-27 22:50:18
2849043 haneybrotherslandscaping.com 0 No Rank 2011-09-27 22:50:19
2849044 handyvertragmitauszahlung.com 0 No Rank 2011-09-27 22:50:23
2849045 handtop.pl 0 No Rank 2011-09-27 22:50:24
2849046 handford.com 1 No Rank 2011-09-27 22:50:27
2849047 handballensvenner.no 4 No Rank 2011-09-27 22:50:29
2849048 hananokoukaen.com 1 No Rank 2011-09-27 22:50:33
2849049 babybottlefeedingstore.com 0 No Rank 2011-09-27 22:50:34
2849050 hanamizake.com 0 277686 2011-09-27 22:50:35
2849051 hammock.gr 0 26985692 2011-09-27 22:50:37
2849052 hamburg-ducktour.com 0 No Rank 2011-09-27 22:50:39
2849053 halloweenplus.com 2 11847584 2011-09-27 22:50:43
2849054 ancientsecretsinc.com 0 19855249 2011-09-27 22:50:44
2849055 halisecetin.com 1 No Rank 2011-09-27 22:50:49
2849056 hailline.com 0 No Rank 2011-09-27 22:50:51
2849057 hahyyr.com 0 No Rank 2011-09-27 22:50:55
2849058 haid.hr 2 17323306 2011-09-27 22:50:55
2849059 baito.bsarifle10.wordpress.com 0 No Rank 2011-09-27 22:50:59
2849060 hagertyphotography.net 1 15141531 2011-09-27 22:51:00
2849061 hadano.biz 0 No Rank 2011-09-27 22:51:00
2849062 ina.marihuany.cz 0 4466457 2011-09-27 22:51:00
2849063 darengiles717.bravejournal.com 0 13300 2011-09-27 22:51:01
2849064 hackerarray.foro.st 0 13977595 2011-09-27 22:51:03
2849065 hack-casino.com 0 No Rank 2011-09-27 22:51:06
2849066 haardttrae.dk 2 15123566 2011-09-27 22:51:10
2849067 h2omes-usa.com 0 No Rank 2011-09-27 22:51:14
2849068 games.bsarifle10.wordpress.com 0 No Rank 2011-09-27 22:51:17
2849069 ancodom.ro 0 No Rank 2011-09-27 22:51:19
2849070 h-o-p-e.net 5 No Rank 2011-09-27 22:51:21
2849071 gysinrealty.com 1 No Rank 2011-09-27 22:51:27
2849072 haciendatorredelasarcas.com 0 No Rank 2011-09-27 22:51:27
2849073 anchoryachtsales.com 3 14560079 2011-09-27 22:51:30
2849074 gwusagroup.com 0 4587183 2011-09-27 22:51:31
2849075 gwenstefani.nl 1 No Rank 2011-09-27 22:51:34
2849076 gvds.org 3 10728733 2011-09-27 22:51:36
2849077 shattered.sofaandcouches.com.nu 0 10637 2011-09-27 22:51:37
2849078 autoxten-cash.weebly.com 0 No Rank 2011-09-27 22:51:37
2849079 guyyoga.com 1 No Rank 2011-09-27 22:51:38
2849080 guysanddollsbeautysalon.com 0 No Rank 2011-09-27 22:51:38
2849081 guntert.com 3 15416393 2011-09-27 22:51:44
2849082 women.bsarifle10.wordpress.com 0 No Rank 2011-09-27 22:51:47
2849083 bdwild.com 0 No Rank 2011-09-27 22:51:49
2849084 guitarwallhanger.info 0 No Rank 2011-09-27 22:51:49
2849085 andanaenoteca.com 2 No Rank 2011-09-27 22:51:52
2849086 guitarpaintguys.com 0 No Rank 2011-09-27 22:51:52
2849087 guidefacturemobile.neuf.fr 0 6680 2011-09-27 22:52:00
2849088 alotoflyrics.blogspot.com 2 27669195 2011-09-27 22:52:06
2849089 guggerhome.com 0 No Rank 2011-09-27 22:52:06
2849090 gusmedina.tk 1 No Rank 2011-09-27 22:52:09
2849091 gudgellpark.org 1 No Rank 2011-09-27 22:52:15
2849092 guardindustrie.ru 2 5158854 2011-09-27 22:52:16
2849093 andalucianvillarentals.co.uk 0 No Rank 2011-09-27 22:52:16
2849094 gsproctor.com 3 No Rank 2011-09-27 22:52:18
2849095 gspointer.com 0 No Rank 2011-09-27 22:52:20
2849096 gsharmonychorus.com 1 No Rank 2011-09-27 22:52:22
2849097 gs-films.com 0 No Rank 2011-09-27 22:52:28
2849098 andat.net 0 12417959 2011-09-27 22:52:28
2849099 groundeddesigns.com 3 No Rank 2011-09-27 22:52:32
2849100 grooner.com 3 19467911 2011-09-27 22:52:35
2849101 andem.org 0 No Rank 2011-09-27 22:52:37
2849102 grofpainting.com 0 No Rank 2011-09-27 22:52:37
2849103 dragonfireworks.marketingandwebdesign.net 0 No Rank 2011-09-27 22:52:38
2849104 griffincentre.ca 1 10532734 2011-09-27 22:52:42
2849105 grodzisk-oswiata.pl 1 22177795 2011-09-27 22:52:44
2849106 griefsjourneyadelaide.org 0 No Rank 2011-09-27 22:52:46
2849107 anderbergconsulting.com 1 No Rank 2011-09-27 22:52:49
2849108 greyzilla.com 0 No Rank 2011-09-27 22:52:50
2849109 www2.palomar.edu 6 46292 2011-09-27 22:52:53
2849110 andersfrostenson.com 3 No Rank 2011-09-27 22:52:57
2849111 baito.marketingandwebdesign.net 0 No Rank 2011-09-27 22:53:00
2849112 greensuspenders.com 0 No Rank 2011-09-27 22:53:04
2849113 anderson4congress.com 3 19438937 2011-09-27 22:53:06
2849114 goofy.org 0 No Rank 2011-09-27 22:53:08
2849115 andersondrywallinc.com 0 No Rank 2011-09-27 22:53:12
2849116 hobokenneighborhoodnews.com 1 1199351 2011-09-27 22:53:18
2849117 sportentrainingscentrumvlagtwedde.nl 1 No Rank 2011-09-27 22:53:18
2849118 andersonirrigation.com 3 No Rank 2011-09-27 22:53:20
2849119 thepulse.blogs.pace.edu 4 52303 2011-09-27 22:53:22
2849120 max.bsarifle10.wordpress.com 0 No Rank 2011-09-27 22:53:28
2849121 andersonsfarnham.co.uk 0 10666691 2011-09-27 22:53:28
2849122 house.bsarifle10.wordpress.com 0 No Rank 2011-09-27 22:53:29
2849123 go2.bsarifle10.wordpress.com 0 No Rank 2011-09-27 22:53:38
2849124 andher.com 2 No Rank 2011-09-27 22:53:43
2849125 thinkcoast.com 2 No Rank 2011-09-27 22:53:51
2849126 greenfarmwensley.info 0 No Rank 2011-09-27 22:53:55
2849127 andfreeebookdownloads.com 0 No Rank 2011-09-27 22:53:56
2849128 greencountrygallery.com 0 No Rank 2011-09-27 22:53:56
2849129 greenbaypackersticket.com 1 23705607 2011-09-27 22:54:02
2849130 garage-equip.com 0 No Rank 2011-09-27 22:54:06
2849131 greecelittleleague.org 2 No Rank 2011-09-27 22:54:09
2849132 greatcandyrecipes.com 0 19089259 2011-09-27 22:54:13
2849133 andfreeebooks.com 1 10193152 2011-09-27 22:54:14
2849134 graves-fearonagency.com 0 No Rank 2011-09-27 22:54:23
2849135 asiansvoip.com 0 8282474 2011-09-27 22:54:25
2849136 greedyoldperverts.com 0 No Rank 2011-09-27 22:54:26
2849137 graveliere.com 1 No Rank 2011-09-27 22:54:28
2849138 andoverrenovation.com 2 13676535 2011-09-27 22:54:29
2849139 grassrootstrust.co.nz 3 5993200 2011-09-27 22:54:30
2849140 grasbylawfirm.com 1 No Rank 2011-09-27 22:54:33
2849141 graphicalwebsites.ca 1 No Rank 2011-09-27 22:54:34
2849142 obscuresystems.com 0 No Rank 2011-09-27 22:54:38
2849143 granitemastersconstruction.com 0 No Rank 2011-09-27 22:54:39
2849144 andorraesqui.net 0 No Rank 2011-09-27 22:54:47
2849145 point.bsarifle85.onsugar.com 0 2275 2011-09-27 22:54:53
2849146 andi-aswang.blogdiario.com 0 16185 2011-09-27 22:54:55
2849147 andrablet.com 2 4838460 2011-09-27 22:55:06
2849148 andreacamacho.com 0 No Rank 2011-09-27 22:55:18
2849149 andrealoeppky.com 0 No Rank 2011-09-27 22:55:29
2849150 andreamwhite.com 2 23906918 2011-09-27 22:55:45
2849151 andrericard.com 4 No Rank 2011-09-27 22:56:00
2849152 music.bsarifle85.onsugar.com 0 2275 2011-09-27 22:56:17
2849153 andreoulabs.com 2 26999061 2011-09-27 22:56:17
2849154 www2.bsarifle85.onsugar.com 0 2275 2011-09-27 22:56:18
2849155 cxt.bsarifle85.onsugar.com 0 2275 2011-09-27 22:56:22
2849156 andreaswiedler.com 2 22246676 2011-09-27 22:56:28
2849157 granatedit.com 2 26697411 2011-09-27 22:56:49
2849158 andrescalvo.com 0 No Rank 2011-09-27 22:56:51
2849159 gramex-prelog.hr 1 21245248 2011-09-27 22:56:55
2849160 erbusa.russerialy.ru 0 3426588 2011-09-27 22:56:58
2849161 bsarifle85.onsugar.com 0 2275 2011-09-27 22:57:00
2849162 gralab-zadar.hr 1 No Rank 2011-09-27 22:57:01
2849163 andrewrivkin.myfirstblog.net 0 699157 2011-09-27 22:57:04
2849164 grajewo.com 2 1134671 2011-09-27 22:57:08
2849165 grahamseats.com 2 No Rank 2011-09-27 22:57:11
2849166 gradyallengooch.com 3 14467708 2011-09-27 22:57:16
2849167 goedkopehoertjes1235.sexdating2.info 0 No Rank 2011-09-27 22:57:17
2849168 andrewchan.com.au 0 No Rank 2011-09-27 22:57:19
2849169 gracie-williams.com 0 No Rank 2011-09-27 22:57:20
2849170 gramag.com 2 11197052 2011-09-27 22:57:26
2849171 graceriley.com 2 No Rank 2011-09-27 22:57:27
2849172 graceharbor.org 0 No Rank 2011-09-27 22:57:31
2849173 gracecommunitypc.com 1 No Rank 2011-09-27 22:57:32
2849174 andrewmccooey.co.uk 0 No Rank 2011-09-27 22:57:33
2849175 gozeros.com 0 24506147 2011-09-27 22:57:43
2849176 tyshawnjdhall.insanejournal.com 0 5036 2011-09-27 22:57:44
2849177 goyagoya.com 4 10954492 2011-09-27 22:57:44
2849178 gowithcleanfix.com 0 No Rank 2011-09-27 22:57:47
2849179 govstats.org 3 11094464 2011-09-27 22:57:51
2849180 governmentgrants.biz 2 No Rank 2011-09-27 22:57:58
2849181 andrews-photography.co.uk 1 18062189 2011-09-27 22:58:03
2849182 gotopinehurst.com 0 11116499 2011-09-27 22:58:06
2849183 vivelledot.com 5 324274 2011-09-27 22:58:07
2849184 gothic-l.com 1 No Rank 2011-09-27 22:58:11
2849185 group.marketingandwebdesign.net 0 No Rank 2011-09-27 22:58:11
2849186 gossipnewz.com 0 9124904 2011-09-27 22:58:16
2849187 goslingphotography.com 2 19754568 2011-09-27 22:58:18
2849188 gorufu-jyoutatu.com 2 4757775 2011-09-27 22:58:22
2849189 prostituees3883.sexdates1.info 0 No Rank 2011-09-27 22:58:22
2849190 gordonsconcerts.com 4 No Rank 2011-09-27 22:58:26
2849191 gorsegnerbrothers.com 2 No Rank 2011-09-27 22:58:26
2849192 tyshawnjtwilivrx.sosblogs.com 0 12622 2011-09-27 22:58:30
2849193 goppolk.org 3 No Rank 2011-09-27 22:58:34
2849194 goodhealthybody.com 1 No Rank 2011-09-27 22:58:34
2849195 andrewwygant.com 0 No Rank 2011-09-27 22:58:37
2849196 good-as-sold.com 0 No Rank 2011-09-27 22:58:39
2849197 androidbn.com 0 5048233 2011-09-27 22:58:44
2849198 wow.bsarifle85.onsugar.com 0 2275 2011-09-27 22:58:45
2849199 golfeclair.com 3 11872552 2011-09-27 22:58:46
2849200 gonebananasonlubbers.com 2 11424570 2011-09-27 22:58:54
2849201 chetuieste.ro 0 13623801 2011-09-27 22:58:56
2849202 goldenszechuanrestaurant.com 1 26098935 2011-09-27 22:58:56
2849203 goldensealenterprises.com 2 3885339 2011-09-27 22:59:02
2849204 goldenglorygroup.net 0 No Rank 2011-09-27 22:59:03
2849205 masseuses4669.sexdating2.info 0 No Rank 2011-09-27 22:59:06
2849206 goldenglobestyles.com 1 No Rank 2011-09-27 22:59:09
2849207 homepager.tripod.bsarifle85.onsugar.com 0 2275 2011-09-27 22:59:10
2849208 goldeneaglegallery.com 1 No Rank 2011-09-27 22:59:10
2849209 johannesburg.bsarifle85.onsugar.com 0 2275 2011-09-27 22:59:10
2849210 acmeengraving.com 0 27097842 2011-09-27 22:59:12
2849211 golden-intl.com 0 28511025 2011-09-27 22:59:14
2849212 golden-karat.com 2 No Rank 2011-09-27 22:59:14
2849213 androidiction.com 0 No Rank 2011-11-17 11:56:06
2849214 golden-gem.com 1 No Rank 2011-09-27 22:59:18
2849215 goldcoinsauctions.com 0 No Rank 2011-09-27 22:59:20
2849216 goldasht.com 4 1374092 2011-09-27 22:59:24
2849217 gokars.com 0 No Rank 2011-09-27 22:59:24
2849218 andriets.com 1 2709751 2011-09-27 22:59:32
2849219 gogetlee.com 2 7522666 2011-09-27 22:59:34
2849220 gogle.kz 0 1733466 2011-09-27 22:59:34
2849221 1365car.enews.marketingandwebdesign.net 0 No Rank 2011-09-27 22:59:38
2849222 tyshawnjtwilivrx.xanga.com 0 2763 2011-09-27 22:59:40
2849223 gofalconsfootball.com 0 21412125 2011-09-27 22:59:41
2849224 goddesslogic.com 0 No Rank 2011-09-27 22:59:41
2849225 cwheatmusic.com 2 No Rank 2011-09-27 22:59:45
2849226 goccia-jewels.com 3 2092437 2011-09-27 22:59:47
2849227 cameracrate.com 0 No Rank 2011-09-27 22:59:47
2849228 god-krop.dk 1 1600388 2011-09-27 22:59:48
2849229 gmuace.org 4 11149888 2011-09-27 22:59:51
2849230 goberg.dk 0 No Rank 2011-09-27 22:59:51
2849231 baito.bsarifle85.onsugar.com 0 2275 2011-09-27 22:59:52
2849232 gmbproject.com 0 No Rank 2011-09-27 22:59:55
2849233 gmc-lv.com 0 No Rank 2011-09-27 22:59:56
2849234 glossator.ru 0 No Rank 2011-09-27 23:00:01
2849235 glorytab.org 3 No Rank 2011-09-27 23:00:07
2849236 games.bsarifle85.onsugar.com 0 2275 2011-09-27 23:00:09
2849237 gloriasnightlife.com 2 24005106 2011-09-27 23:00:11
2849238 glodokteknik.com 0 3852384 2011-09-27 23:00:14
2849239 glocklawenforcement.com 1 No Rank 2011-09-27 23:00:18
2849240 globusgrad.ru 3 23536847 2011-09-27 23:00:24
2849241 lakeatlissara.com 2 10411763 2011-09-27 23:00:25
2849242 globaltoursoman.com 3 20116302 2011-09-27 23:00:27
2849243 barbiegamex.com 0 No Rank 2011-09-27 23:00:27
2849244 women.bsarifle85.onsugar.com 0 2275 2011-09-27 23:00:38
2849245 rave-on.com 0 No Rank 2011-09-27 23:00:40
2849246 mybestbooks.aztha.com 0 No Rank 2011-09-27 23:00:57
2849247 glopackinc.com 1 11181415 2011-09-27 23:01:02
2849248 globalfurnituremart.com 1 6189652 2011-09-27 23:01:04
2849249 ryanjtatkinson.blogdrive.com 0 8495 2011-09-27 23:01:06
2849250 globalconservationgroup.com 2 No Rank 2011-09-27 23:01:07
2849251 glitsys.com 0 No Rank 2011-09-27 23:01:12
2849252 supremeskips02.insanejournal.com 0 5036 2011-09-27 23:01:13
2849253 globalbdsm.info 1 No Rank 2011-09-27 23:01:14
2849254 glennnissan.com 2 4649085 2011-09-27 23:01:23
2849255 glassgaragegallery.com 3 3873376 2011-09-27 23:01:28
2849256 glamourathletephoto.com 1 16994476 2011-09-27 23:01:31
2849257 gksservices.com 0 No Rank 2011-09-27 23:01:35
2849258 glamour-parad.ru 2 4707093 2011-09-27 23:01:36
2849259 gkprod.com 2 No Rank 2011-09-27 23:01:41
2849260 gkm-yar.ru 2 No Rank 2011-09-27 23:01:46
2849261 gkjjakarta.org 0 27690618 2011-09-27 23:01:50
2849262 robertgemiller.over-blog.com 0 354 2011-09-27 23:01:52
2849263 gkbnm.hr 3 No Rank 2011-09-27 23:01:54
2849264 max.bsarifle85.onsugar.com 0 2275 2011-09-27 23:01:59
2849265 house.bsarifle85.onsugar.com 0 2275 2011-09-27 23:02:02
2849266 ginodemaiophotography.com 2 No Rank 2011-09-27 23:02:06
2849267 gingerlabs.com 3 4742626 2011-09-27 23:02:10
2849268 ginneklets.write2me.nl 0 262600 2011-09-27 23:02:12
2849269 robertfdhoward.posterous.com 0 No Rank 2011-09-27 23:02:13
2849270 go2.bsarifle85.onsugar.com 0 2275 2011-09-27 23:02:13
2849271 ginger-park.com 2 6341119 2011-09-27 23:02:15
2849272 ginadeluca.net 3 23797468 2011-09-27 23:02:17
2849273 gimklucze.republika.pl 1 7959 2011-09-27 23:02:20
2849274 gilles-luka.com 3 12036368 2011-09-27 23:02:21
2849275 gigiscupcakes.net 3 No Rank 2011-09-27 23:02:25
2849276 giftwrapsrus.com 0 No Rank 2011-09-27 23:02:30
2849277 giftya.net 2 3693177 2011-09-27 23:02:30
2849278 giftsjournal.pl 4 5815860 2011-09-27 23:02:34
2849279 giftideamen.com 2 1791088 2011-09-27 23:02:41
2849280 gettargetedwebsitetrafficwithmasstraffic.topproductsonline.info 0 3684083 2011-09-27 23:03:06
2849281 gias-salon.com 1 No Rank 2011-09-27 23:03:15
2849282 giaitriamnhac.net 0 28858684 2011-09-27 23:03:18
2849283 ghslack.com 1 No Rank 2011-09-27 23:03:20
2849284 ghostlightproductions.de 1 No Rank 2011-09-27 23:03:22
2849285 gfii.com 2 4657799 2011-09-27 23:03:30
2849286 geysergazing.com 4 22548159 2011-09-27 23:03:31
2849287 getwelltogether.com 3 No Rank 2011-09-27 23:03:36
2849288 getuptheyard.com 0 21905965 2011-09-27 23:03:38
2849289 gettingyouconnected.com 3 14649011 2011-09-27 23:03:39
2849290 point.bsascopes35.edublogs.org 0 5154 2011-09-27 23:03:40
2849291 getpaid4writing.com 0 No Rank 2011-09-27 23:03:42
2849292 masook.net 5 284284 2011-09-27 23:03:45
2849293 getinforum.com 0 11998871 2011-09-27 23:03:48
2849294 one-stop4all.blogspot.com 0 No Rank 2011-09-27 23:03:48
2849295 getjimmered.com 2 1436971 2011-09-27 23:03:50
2849296 getguitarguru.com 2 23226891 2011-09-27 23:03:52
2849297 getchromium.org 2 17534275 2011-09-27 23:03:56
2849298 getbokeh.com 3 No Rank 2011-09-27 23:03:59
2849299 getbendtel.com 0 No Rank 2011-09-27 23:04:05
2849300 hbyjgd.com 0 No Rank 2011-09-27 23:04:10
2849301 gesundheitsforum-rhf.ch 2 No Rank 2011-09-27 23:04:12
2849302 gesti-online.com 0 No Rank 2011-09-27 23:04:14
2849303 gerrykane.com 1 No Rank 2011-09-27 23:04:14
2849304 laserstratos.org.uk 1 No Rank 2011-09-27 23:04:17
2849305 gerrit007.write2me.nl 0 262600 2011-09-27 23:04:23
2849306 geraldcasey.com 0 No Rank 2011-09-27 23:04:24
2849307 georgiatruckaccidentlawyersblog.com 3 No Rank 2011-09-27 23:04:38
2849308 halloweendecorationsclearance.buyqm.com 0 1623657 2011-09-27 23:04:39
2849309 fatbobsny.com 0 No Rank 2011-09-27 23:04:39
2849310 georgiatrackcamps.com 3 9325415 2011-09-27 23:04:42
2849311 georgiaroadlandscape.com 0 21555912 2011-09-27 23:04:43
2849312 georgiagolfcompany.com 1 12490096 2011-09-27 23:04:47
2849313 lechateauduchien.com 2 12931776 2011-09-27 23:04:49
2849314 georgetownofkettering.com 2 8280855 2011-09-27 23:04:50
2849315 youtubevideos.com.au 0 No Rank 2011-09-27 23:04:54
2849316 ipsipower.com 1 No Rank 2011-09-27 23:05:02
2849317 fullhd.forumeiros.com 0 6326 2011-09-27 23:05:10
2849318 shaggingmusic.com 0 20008222 2011-09-27 23:05:20
2849319 www2.bsascopes35.edublogs.org 0 5154 2011-09-27 23:05:34
2849320 music.bsascopes35.edublogs.org 0 5154 2011-09-27 23:05:35
2849321 cxt.bsascopes35.edublogs.org 0 5154 2011-09-27 23:05:41
2849322 eraija.com 1 5503729 2011-09-27 23:06:04
2849323 ftp.codepub.com 0 9279 2011-09-27 23:06:31
2849324 ftp.kemnet.com 6 4524147 2011-09-27 23:06:40
2849325 bsascopes35.edublogs.org 0 5154 2011-09-27 23:06:44
2849326 googleyardim.net 1 491245 2011-09-27 23:06:47
2849327 tecnologic.mywapblog.com 0 30434 2011-09-27 23:07:28
2849328 the-chatting-room.com 0 11161546 2011-09-27 23:07:42
2849329 pregnancyteststrips.org 0 18732037 2011-09-27 23:07:55
2849330 annonces.ta4a.info 0 25692763 2011-09-27 23:08:17
2849331 infolowongan.co 0 16516628 2011-09-27 23:08:32
2849332 lemkinlaw.com 2 No Rank 2011-09-27 23:08:44
2849333 atghealthandsafety.co.uk 1 1658095 2011-09-27 23:08:45
2849334 izbelvane.info 0 No Rank 2011-09-27 23:08:47
2849335 asian-escapes.com 2 25204152 2011-09-27 23:08:58
2849336 chica-divertida.livejournal.com 3 86 2011-09-27 23:08:58
2849337 pampers.guru4design.com 0 No Rank 2011-09-27 23:09:11
2849338 mrvc.game-box.tk 0 No Rank 2011-09-27 23:09:15
2849339 women.game-box.tk 0 No Rank 2011-09-27 23:09:27
2849340 amg-films.com 1 6410243 2011-09-27 23:09:27
2849341 wow.bsascopes35.edublogs.org 0 5154 2011-09-27 23:09:27
2849342 lrw.qjwm.com 0 8952 2011-09-27 23:09:31
2849343 originalpartyposters.com 0 No Rank 2011-09-27 23:09:50
2849344 homepager.tripod.bsascopes35.edublogs.org 0 5154 2011-09-27 23:10:02
2849345 johannesburg.bsascopes35.edublogs.org 0 5154 2011-09-27 23:10:02
2849346 orlandoresidence.com 2 4804813 2011-09-27 23:10:03
2849347 georgethelawyer.com 1 No Rank 2011-09-27 23:10:50
2849348 georgejabali.com 0 No Rank 2011-09-27 23:10:53
2849349 geologyfieldtrips.com 2 No Rank 2011-09-27 23:10:54
2849350 genyukan.com 0 No Rank 2011-09-27 23:11:04
2849351 baito.bsascopes35.edublogs.org 0 5154 2011-09-27 23:11:04
2849352 geniehealing.com 1 No Rank 2011-09-27 23:11:12
2849353 genesisfishing.com 0 No Rank 2011-09-27 23:11:23
2849354 gene-express.com 1 No Rank 2011-09-27 23:11:27
2849355 gendtinbeeld.write2me.nl 1 262600 2011-09-27 23:11:32
2849356 gender.se 1 No Rank 2011-09-27 23:11:32
2849357 games.bsascopes35.edublogs.org 0 5154 2011-09-27 23:11:32
2849358 gekidan-cosmos.net 0 No Rank 2011-09-27 23:11:41
2849359 geesepeacestlouis.org 2 No Rank 2011-09-27 23:11:45
2849360 geekyswede.com 0 No Rank 2011-09-27 23:11:46
2849361 max.marketingandwebdesign.net 0 No Rank 2011-09-27 23:11:50
2849362 gdtxphuyen.edu.vn 4 5930564 2011-09-27 23:11:54
2849363 geekaydistribution.com 0 6407334 2011-09-27 23:11:56
2849364 gdhaofa.com 1 No Rank 2011-09-27 23:12:00
2849365 gdair.com 2 No Rank 2011-09-27 23:12:01
2849366 dfdconline.org 0 No Rank 2011-09-27 23:12:07
2849367 rockinsauctionservices.com 1 No Rank 2011-09-27 23:12:08
2849368 gcbornholm.dk 3 No Rank 2011-09-27 23:12:10
2849369 gcsu.ru 3 3977704 2011-09-27 23:12:10
2849370 centerstage-dance.com 2 No Rank 2011-09-27 23:12:11
2849371 gazzisonomacotedor.net 0 No Rank 2011-09-27 23:12:15
2849372 gazellemark.com 1 No Rank 2011-09-27 23:12:19
2849373 women.bsascopes35.edublogs.org 0 5154 2011-09-27 23:12:23
2849374 gazegoalkatresz.hu 1 26013433 2011-09-27 23:12:24
2849375 gautamghosh.net 4 1290462 2011-09-27 23:12:27
2849376 gaylocaldating.com 0 No Rank 2011-09-27 23:12:29
2849377 gatherchurch.com 0 No Rank 2011-09-27 23:12:34
2849378 gastrojobs.com 6 334617 2011-09-27 23:12:38
2849379 gasparsdive.com 2 No Rank 2011-09-27 23:12:41
2849380 garystonelandscapearchitect.com 0 No Rank 2011-09-27 23:12:44
2849381 garylougher.net 0 No Rank 2011-09-27 23:12:48
2849382 indexed.marketingandwebdesign.net 0 No Rank 2011-09-27 23:12:50
2849383 garvenllc.com 2 17787220 2011-09-27 23:12:51
2849384 garmolegal.com 1 No Rank 2011-09-27 23:12:56
2849385 gardenstatemma.com 0 362794 2011-09-27 23:12:59
2849386 ganzacompany.com 0 No Rank 2011-09-27 23:13:06
2849387 gannonsystems.com 0 No Rank 2011-09-27 23:13:08
2849388 ganethu.net 0 No Rank 2011-09-27 23:13:14
2849389 gamesylvania.com 2 13403182 2011-09-27 23:13:22
2849390 gamediv.com 0 3758447 2011-09-27 23:13:25
2849391 mightylib.sofaandcouches.com.nu 0 10637 2011-09-27 23:13:39
2849392 galleristorch.dk 0 No Rank 2011-09-27 23:13:40
2849393 max.bsascopes35.edublogs.org 0 5154 2011-09-27 23:14:01
2849394 house.bsascopes35.edublogs.org 0 5154 2011-09-27 23:14:02
2849395 galantis.com 3 10159238 2011-09-27 23:14:13
2849396 go2.bsascopes35.edublogs.org 0 5154 2011-09-27 23:14:14
2849397 gakabia.com 0 No Rank 2011-09-27 23:14:14
2849398 gaithersburgpartyrental.com 3 6984211 2011-09-27 23:14:19
2849399 gainsthroughgaming.org 4 No Rank 2011-09-27 23:14:22
2849400 tbullock.com 2 6717964 2011-09-27 23:14:26
2849401 trainingndt.blogspot.com 0 15634493 2011-10-16 11:11:06
2849402 gaestehausmarianne.com 1 No Rank 2011-09-27 23:14:32
2849403 gaeconomylimo.com 2 863325 2011-09-27 23:14:41
2849404 gaborgirls.org 1 16189873 2011-09-27 23:14:42
2849405 gablepropertymanagement.com 0 No Rank 2011-09-27 23:14:46
2849406 g0x.net 0 No Rank 2011-09-27 23:14:51
2849407 g2sports.com 3 No Rank 2011-09-27 23:14:51
2849408 brutalcheaters.net 1 7363097 2011-09-27 23:14:57
2849409 fz-foresight.com 2 No Rank 2011-09-27 23:15:06
2849410 webcam-girls.ru 1 934531 2011-09-27 23:15:09
2849411 fwb-game.com 0 No Rank 2011-09-27 23:15:14
2849412 personaldev.hexat.com 0 48827 2011-09-27 23:15:15
2849413 webchamber.com 5 6381557 2011-09-27 23:15:16
2849414 fzfood.com 0 No Rank 2011-09-27 23:15:17
2849415 fvr-group.com 2 No Rank 2011-09-27 23:15:18
2849416 tradeinyourstuff.com 0 22956880 2011-09-27 23:15:19
2849417 funwithplants.com 0 No Rank 2011-09-27 23:15:26
2849418 funkynightfever.nl 0 No Rank 2011-09-27 23:15:30
2849419 funeralhomeseating.com 1 No Rank 2011-09-27 23:15:31
2849420 mattressdiscounters.com 4 342593 2011-09-27 23:15:35
2849421 fultonross.com 1 No Rank 2011-09-27 23:15:35
2849422 fulldrop.com 1 4880844 2011-09-27 23:15:38
2849423 point.bsascopes76.livejournal.com 0 86 2011-09-27 23:15:41
2849424 fuelnwi.com 0 No Rank 2011-09-27 23:15:42
2849425 fullcircle-mag.fr 4 9174661 2011-09-27 23:15:44
2849426 ftindustrial.com.mx 1 No Rank 2011-09-27 23:15:47
2849427 fse3rouen.net 2 No Rank 2011-09-27 23:15:55
2849428 fryeinc.net 1 24002930 2011-09-27 23:15:57
2849429 commission-central.marketingandwebdesign.net 0 No Rank 2011-09-27 23:15:57
2849430 frontierholidays.com 3 3840964 2011-09-27 23:16:00
2849431 frogfollies.org 4 8336344 2011-09-27 23:16:02
2849432 frockofages.com 4 No Rank 2011-09-27 23:16:07
2849433 friendsmhlibrary.org 4 No Rank 2011-09-27 23:16:09
2849434 frida.holck-nielsen.dk 1 No Rank 2011-09-27 23:16:15
2849435 freuchiecricketclub.com 2 15528114 2011-09-27 23:16:18
2849436 freon-refrigerants.com 3 No Rank 2011-09-27 23:16:22
2849437 fresnobankruptcylaw.com 2 1210845 2011-09-27 23:16:23
2849438 actor.marketingandwebdesign.net 0 No Rank 2011-09-27 23:16:26
2849439 frenchgardencare.com 0 No Rank 2011-09-27 23:16:26
2849440 freilichminerals.com 4 24957111 2011-09-27 23:16:28
2849441 freetuitionsecrets.com 2 10664527 2011-09-27 23:16:33
2849442 freevideobar.com 1 16170352 2011-09-27 23:16:34
2849443 freespiritwebdesign.com 0 No Rank 2011-09-27 23:16:39
2849444 freesoccer.de.tc 0 137266 2011-09-27 23:16:43
2849445 freeonlinekidgames.org 2 25550823 2011-09-27 23:16:46
2849446 freefromgluten.com 3 930847 2011-09-27 23:16:50
2849447 freefoodandgrocerystuff.com 0 No Rank 2011-09-27 23:16:52
2849448 freedomsoccer.net 1 No Rank 2011-09-27 23:16:54
2849449 freedomfarmnj.com 1 No Rank 2011-09-27 23:17:00
2849450 music.bsascopes76.livejournal.com 0 86 2011-09-27 23:17:03
2849451 freedatasoftwarerecoveryreviews.com 0 No Rank 2011-09-27 23:17:05
2849452 www2.bsascopes76.livejournal.com 0 86 2011-09-27 23:17:06
2849453 freecancertest.com 1 17212107 2011-09-27 23:17:08
2849454 annapolislighting702.travellerspoint.com 0 13128 2011-09-27 23:17:09
2849455 cxt.bsascopes76.livejournal.com 0 86 2011-09-27 23:17:10
2849456 free-run.com 0 No Rank 2011-09-27 23:17:15
2849457 fredlavielle.free.fr 0 208 2011-09-27 23:17:19
2849458 free-dictionary.org 1 15250535 2011-09-27 23:17:21
2849459 fredericksburgwine.com 3 18448207 2011-09-27 23:17:30
2849460 fredielectronics.com 0 No Rank 2011-09-27 23:17:32
2849461 franskarivieran.nu 0 No Rank 2011-09-27 23:17:36
2849462 franksgaragedoor.com 2 5215114 2011-09-27 23:17:38
2849463 franklinmountains.org 3 No Rank 2011-09-27 23:17:40
2849464 francoisrousseau.com 4 5915641 2011-09-27 23:17:43
2849465 franciscabastosdesign.com.br 1 No Rank 2011-09-27 23:17:46
2849466 france-adot.org 5 2354823 2011-09-27 23:17:51
2849467 francisav.net 1 No Rank 2011-09-27 23:17:51
2849468 bsascopes76.livejournal.com 0 86 2011-09-27 23:17:54
2849469 fpn.pt 4 2201470 2011-09-27 23:17:54
2849470 francadv.com 0 No Rank 2011-09-27 23:17:57
2849471 motocatalog.blogspot.com 0 27696385 2011-09-27 23:18:01
2849472 fpcgraham.com 3 No Rank 2011-09-27 23:18:01
2849473 foxhallconsulting.com 3 No Rank 2011-09-27 23:18:07
2849474 ultramarathonsports.com 0 No Rank 2011-09-27 23:18:08
2849475 fotouniverse.net 0 No Rank 2011-09-27 23:18:09
2849476 fotomoda33.com 0 No Rank 2011-09-27 23:18:14
2849477 heritageglassmuseum.com 3 No Rank 2011-09-27 23:18:17
2849478 moviesworld4you.blogspot.com 0 No Rank 2011-09-27 23:18:49
2849479 curesleepingdisorders.com 1 4998588 2011-09-27 23:18:58
2849480 iklan88.co.nr 1 15467565 2011-09-27 23:19:01
2849481 anticomerciales.tk 0 No Rank 2011-09-27 23:19:09
2849482 liferadio.cu.cc 0 12950 2011-09-27 23:19:09
2849483 lawyersincoloradousa.com 0 No Rank 2011-09-27 23:19:24
2849484 serank.org 3 No Rank 2011-09-27 23:19:38
2849485 wow.bsascopes76.livejournal.com 0 86 2011-09-27 23:20:00
2849486 cornerstonefinancial-tx.com 2 No Rank 2011-09-27 23:20:09
2849487 burket.net 2 12595662 2011-09-27 23:20:21
2849488 homepager.tripod.bsascopes76.livejournal.com 0 86 2011-09-27 23:20:26
2849489 johannesburg.bsascopes76.livejournal.com 0 86 2011-09-27 23:20:26
2849490 baito.bsascopes76.livejournal.com 0 86 2011-09-27 23:21:23
2849491 en.turkeyforfriends.com 1 293755 2011-09-27 23:21:28
2849492 dzboys-forum.keuf.net 1 39717 2011-09-27 23:21:36
2849493 games.bsascopes76.livejournal.com 0 86 2011-09-27 23:21:42
2849494 nassarlandscaping.com 3 No Rank 2011-09-27 23:22:10
2849495 women.bsascopes76.livejournal.com 0 86 2011-09-27 23:22:14
2849496 andamantimes.com 2 3247035 2011-09-27 23:23:18
2849497 max.bsascopes76.livejournal.com 0 86 2011-09-27 23:23:35
2849498 moffettroadag.com 2 No Rank 2011-09-27 23:23:37
2849499 house.bsascopes76.livejournal.com 0 86 2011-09-27 23:23:38
2849500 andreamacias.com 0 No Rank 2011-09-27 23:23:39
2849501 darengiles717.deviantart.com 0 131 2011-09-27 23:23:46
2849502 andrewneumann.com 0 No Rank 2011-09-27 23:23:46
2849503 go2.bsascopes76.livejournal.com 0 86 2011-09-27 23:23:48
2849504 xxxlolas.com 1 No Rank 2011-09-27 23:23:50
2849505 insurance-all-2.info 0 No Rank 2011-09-27 23:23:56
2849506 freeporttalks.com 0 No Rank 2011-09-27 23:24:02
2849507 fotoflesz.fotea.pl 1 2778702 2011-09-27 23:24:15
2849508 alltomviktminskning.se 2 20643479 2011-09-27 23:24:16
2849509 fl-architecture.com 0 No Rank 2011-09-27 23:24:19
2849510 foto-janvanaefst.nl 1 No Rank 2011-09-27 23:24:20
2849511 fotogenika.pl 2 5418480 2011-09-27 23:24:24
2849512 forzamotorsport2.cz 2 21266778 2011-09-27 23:24:27
2849513 forwardpress.org 0 No Rank 2011-09-27 23:24:33
2849514 forumizmir.net.tc 0 28617472 2011-09-27 23:24:35
2849515 forumbey.com 0 No Rank 2011-09-27 23:24:41
2849516 forum.ringstarstaff.lv 0 24510736 2011-09-27 23:24:41
2849517 fortwaynedjs.com 0 No Rank 2011-09-27 23:24:46
2849518 forum.miniclubserbia.rs 2 11456719 2011-09-27 23:24:50
2849519 fortlauderdalecaraccidentattorneyblog.com 3 13170326 2011-09-27 23:24:53
2849520 furniturecharity.org 0 No Rank 2011-09-27 23:24:54
2849521 cuttingedgelc.net 0 No Rank 2011-09-27 23:24:54
2849522 forsag5film.ru 1 13905722 2011-09-27 23:24:56
2849523 formanforensics.com 1 No Rank 2011-09-27 23:25:00
2849524 point.bsasights18.edublogs.org 0 5154 2011-09-27 23:25:00
2849525 formulaclub.net 3 7978190 2011-09-27 23:25:02
2849526 formaleasysoftware.com 0 No Rank 2011-09-27 23:25:06
2849527 forestlakevillage.net 0 23700155 2011-09-27 23:25:13
2849528 forestextraction.com 1 No Rank 2011-09-27 23:25:16
2849529 foresterroller.com 1 No Rank 2011-09-27 23:25:20
2849530 meaningfulbeautyscam.net 0 No Rank 2011-09-27 23:25:25
2849531 foothillsauctionservices.com 1 No Rank 2011-09-27 23:25:25
2849532 soulsonicboogie.com 3 No Rank 2011-09-27 23:25:31
2849533 forgefineartgallery.com 1 No Rank 2011-09-27 23:25:32
2849534 hometeamproperty.net 0 No Rank 2011-09-27 23:25:33
2849535 foodaddictioninstitute.org 3 14407779 2011-09-27 23:25:38
2849536 weddinggallery.netii.net 0 47787 2011-09-27 23:25:39
2849537 fonyodhause.hu 0 No Rank 2011-09-27 23:25:42
2849538 fontme.net 3 No Rank 2011-09-27 23:25:47
2849539 foodinitaly.org 4 2738995 2011-09-27 23:25:51
2849540 fontibre.com 0 No Rank 2011-09-27 23:25:52
2849541 blog.marketingandwebdesign.net 0 No Rank 2011-09-27 23:25:53
2849542 folger.com 2 No Rank 2011-09-27 23:25:56
2849543 fontangrad.ru 2 8521294 2011-09-27 23:25:59
2849544 focoloco.de 3 2734647 2011-09-27 23:26:02
2849545 fnrights.com 5 No Rank 2011-09-27 23:26:03
2849546 avxzw.qupan.cc 0 67741 2011-09-27 23:26:11
2849547 fmxjam.cz 3 6602850 2011-09-27 23:26:11
2849548 fmi.unibuc.ro 6 75356 2011-09-27 23:26:16
2849549 music.bsasights18.edublogs.org 0 5154 2011-09-27 23:26:18
2849550 www2.bsasights18.edublogs.org 0 5154 2011-09-27 23:26:21
2849551 fmdh.org 4 2741689 2011-09-27 23:26:22
2849552 flywithjoe.com 4 26601350 2011-09-27 23:26:24
2849553 cxt.bsasights18.edublogs.org 0 5154 2011-09-27 23:26:25
2849554 flyingdoctors.crash.to 0 36259 2011-09-27 23:26:27
2849555 flyingarmy.com 0 No Rank 2011-09-27 23:26:28
2849556 flycycle.eu 3 No Rank 2011-09-27 23:26:35
2849557 0865.net 0 No Rank 2011-09-27 23:26:35
2849558 catenclosuresforoutdoors.net 0 24141516 2011-09-27 23:26:36
2849559 flup.me 2 2669443 2011-09-27 23:26:37
2849560 fluhme.com 2 5282450 2011-09-27 23:26:40
2849561 infotechinspiration.blogspot.com 0 7291497 2011-09-27 23:26:40
2849562 fluffles.com 2 No Rank 2011-09-27 23:26:51
2849563 flotilia.com 2 No Rank 2011-09-27 23:26:56
2849564 floridavilladays.com 0 No Rank 2011-09-27 23:27:02
2849565 desenele-mele.com 0 No Rank 2011-09-27 23:27:04
2849566 floridachina.org 3 9471362 2011-09-27 23:27:05
2849567 bsasights18.edublogs.org 0 5154 2011-09-27 23:27:06
2849568 florezmusic.com 3 26903146 2011-09-27 23:27:09
2849569 floresrebeca.com 0 No Rank 2011-09-27 23:27:16
2849570 flopt.net 0 No Rank 2011-09-27 23:27:20
2849571 perfecthealthyliving.blogspot.com 0 No Rank 2011-09-27 23:27:25
2849572 fliesen-back.com 0 No Rank 2011-09-27 23:27:28
2849573 p500digitalredcamera.com 0 No Rank 2011-09-27 23:27:32
2849574 flexibilityenvelope.com 3 No Rank 2011-09-27 23:27:35
2849575 flooringlaminatewood.com 0 No Rank 2011-09-27 23:27:38
2849576 fleamarketsandauctions.com 2 20538589 2011-09-27 23:27:38
2849577 flatroofer.net 0 No Rank 2011-09-27 23:27:44
2849578 flashlightbusinessconsulting.com 0 No Rank 2011-09-27 23:27:47
2849579 flashgam3r.com 1 No Rank 2011-09-27 23:27:51
2849580 flashfreight.com 0 No Rank 2011-09-27 23:27:51
2849581 flandriacafe.com 2 4020604 2011-09-27 23:27:56
2849582 flammes-et-co.com 0 14608425 2011-09-27 23:27:57
2849583 twainschicken.com 0 12889985 2011-09-27 23:28:02
2849584 flagstaffhomes4sale.com 1 No Rank 2011-09-27 23:28:02
2849585 flagstaffplumbers.org 0 No Rank 2011-09-27 23:28:02
2849586 wildwoodchristianfellowship.org 1 No Rank 2011-09-27 23:28:11
2849587 fjellro.no 2 13244607 2011-09-27 23:28:14
2849588 flags.w.interia.pl 4 708 2011-09-27 23:28:15
2849589 fixmybrothersbutt.com 1 No Rank 2011-09-27 23:28:20
2849590 fitnessmatters.com 2 23559200 2011-09-27 23:28:23
2849591 fitnessbootcampsarizona.com 1 14366135 2011-09-27 23:28:29
2849592 fisk-fiskefamilyassociation.com 3 No Rank 2011-09-27 23:28:33
2849593 fishingandoutdoorradio.com 3 No Rank 2011-09-27 23:28:39
2849594 fisher-emedia.com 3 No Rank 2011-09-27 23:28:40
2849595 fishcamproysecity.com 1 22876352 2011-09-27 23:28:50
2849596 wow.bsasights18.edublogs.org 0 5154 2011-09-27 23:28:51
2849597 firstworkschurch.org 0 No Rank 2011-09-27 23:28:52
2849598 firstumcfoxhill.org 3 No Rank 2011-09-27 23:28:54
2849599 firstlightoptics.com 4 952169 2011-09-27 23:28:59
2849600 firstjob.ee 5 2943677 2011-09-27 23:29:01
2849601 firstitpro.com 3 2558521 2011-09-27 23:29:08
2849602 firstchoicemarine.net 0 No Rank 2011-09-27 23:29:11
2849603 firstbaptistwesterville.com 0 No Rank 2011-09-27 23:29:13
2849604 firstbaptistagawam.org 1 No Rank 2011-09-27 23:29:17
2849605 homepager.tripod.bsasights18.edublogs.org 0 5154 2011-09-27 23:29:21
2849606 johannesburg.bsasights18.edublogs.org 0 5154 2011-09-27 23:29:23
2849607 fireoil.ru 2 No Rank 2011-09-27 23:29:24
2849608 finelasercut.com 1 4194890 2011-09-27 23:29:28
2849609 cocinandoconelalma.foroactivo.com 2 3035 2011-09-27 23:29:45
2849610 fingerlakeschristian.org 3 No Rank 2011-09-27 23:29:51
2849611 newsforandroid.blogspot.com 0 No Rank 2011-09-27 23:29:52
2849612 cheapauto-insurancequotes.com 0 8604621 2011-09-27 23:29:56
2849613 finearcade.com 2 No Rank 2011-09-27 23:29:57
2849614 findmedals.info 0 No Rank 2011-09-27 23:30:00
2849615 baito.bsasights18.edublogs.org 0 5154 2011-09-27 23:30:07
2849616 findhoroscopes.com 2 No Rank 2011-09-27 23:30:11
2849617 findacanadiantutor.com 3 No Rank 2011-09-27 23:30:12
2849618 final-fantasy-8.info 0 6491494 2011-09-27 23:30:15
2849619 finacity.com 3 7719147 2011-09-27 23:30:16
2849620 fifootball.com 1 15672040 2011-09-27 23:30:24
2849621 games.bsasights18.edublogs.org 0 5154 2011-09-27 23:30:24
2849622 fifaediting.de.vu 2 No Rank 2011-09-27 23:30:25
2849623 fieldstoneglen-aberdeen.com 1 No Rank 2011-09-27 23:30:29
2849624 fibrofree.com 0 20074635 2011-09-27 23:30:38
2849625 fibrezone.net 0 No Rank 2011-09-27 23:30:41
2849626 fida-nails.ch 0 No Rank 2011-09-27 23:30:44
2849627 fibergrass.com 1 No Rank 2011-09-27 23:30:46
2849628 computer-animation-3dmodeling.blogspot.com 0 No Rank 2011-09-27 23:30:47
2849629 women.bsasights18.edublogs.org 0 5154 2011-09-27 23:30:51
2849630 fhmachinery.com 2 20175617 2011-09-27 23:30:53
2849631 ffllc.net 0 No Rank 2011-09-27 23:30:57
2849632 ffc.seraphim.my 0 16171178 2011-09-27 23:31:05
2849633 nationhunter.com 0 No Rank 2011-09-27 23:31:13
2849634 ff88coatings.com 2 No Rank 2011-09-27 23:31:13
2849635 ff6.com 0 2312927 2011-09-27 23:31:14
2849636 ff.lv 4 645961 2011-09-27 23:31:18
2849637 fezadugunsalonlari.com 2 No Rank 2011-09-27 23:31:22
2849638 feuerwehr-engelsdorf.de.vu 1 No Rank 2011-09-27 23:31:24
2849639 ferraraconsulting.com 0 No Rank 2011-09-27 23:31:27
2849640 fernandojones.com 3 No Rank 2011-09-27 23:31:30
2849641 blog.akef.org 0 8853505 2011-09-27 23:31:32
2849642 festivalalexandria.com 3 No Rank 2011-09-27 23:31:51
2849643 radioclick.ro 2 3035168 2011-09-27 23:32:03
2849644 gktrainingcentre.com 1 No Rank 2011-09-27 23:32:09
2849645 banotocu.org 0 No Rank 2011-09-27 23:32:11
2849646 max.bsasights18.edublogs.org 0 5154 2011-09-27 23:32:17
2849647 house.bsasights18.edublogs.org 0 5154 2011-09-27 23:32:19
2849648 go2.bsasights18.edublogs.org 0 5154 2011-09-27 23:32:28
2849649 kimoftheworld.com 0 477532 2011-09-27 23:32:55
2849650 personalinjuryclaimsolicitor.us 0 No Rank 2011-09-27 23:33:00
2849651 jiaoqi-texiaoyao.taobao.com 0 16 2011-09-27 23:33:01
2849652 printsfromthepast.com 3 1639695 2011-09-27 23:33:09
2849653 plan-aira.com 2 6044056 2011-09-27 23:33:10
2849654 consumerreportsdishwashers132.tumblr.com 0 No Rank 2011-09-27 23:33:13
2849655 eagleandempire.net 2 No Rank 2011-09-27 23:33:29
2849656 elevencitydiner.com 4 7120673 2011-09-27 23:33:31
2849657 point.bsasights21.xanga.com 0 2763 2011-09-27 23:33:33
2849658 internet-dating-service.com 0 No Rank 2011-09-27 23:33:38
2849659 pittmanprinting.com 0 11478387 2011-09-27 23:34:01
2849660 mieux-down.com 0 25970342 2011-09-27 23:34:18
2849661 carolinawholelifecenter.com 0 No Rank 2011-09-27 23:34:59
2849662 music.bsasights21.xanga.com 0 2763 2011-09-27 23:35:09
2849663 www2.bsasights21.xanga.com 0 2763 2011-09-27 23:35:10
2849664 cxt.bsasights21.xanga.com 0 2763 2011-09-27 23:35:16
2849665 ilikemyweb.com 0 No Rank 2011-09-27 23:35:17
2849666 joesphklein1229.livejournal.com 0 86 2011-09-27 23:35:21
2849667 facebook.comk.co 0 No Rank 2011-09-27 23:35:55
2849668 enus.russerialy.ru 0 3426588 2011-09-27 23:35:57
2849669 bsasights21.xanga.com 0 2763 2011-09-27 23:35:57
2849670 wsjr.marketingandwebdesign.net 0 No Rank 2011-09-27 23:36:12
2849671 contactus.marketingandwebdesign.net 0 No Rank 2011-09-27 23:36:54
2849672 joesphklein1229.insanejournal.com 0 5036 2011-09-27 23:37:40
2849673 wow.bsasights21.xanga.com 0 2763 2011-09-27 23:37:54
2849674 homepager.tripod.bsasights21.xanga.com 0 2763 2011-09-27 23:38:21
2849675 johannesburg.bsasights21.xanga.com 0 2763 2011-09-27 23:38:21
2849676 cave.net 3 16143643 2011-09-27 23:38:24
2849677 fermesduchateau.info 2 No Rank 2011-09-27 23:38:29
2849678 privemassages363715.sexdating2.info 0 No Rank 2011-09-27 23:38:29
2849679 femalerestrooms.com 2 5151420 2011-09-27 23:38:32
2849680 felicewebb.com 0 No Rank 2011-09-27 23:38:33
2849681 feeltheimpact.net 0 No Rank 2011-09-27 23:38:46
2849682 federationofamericanmusicianssingersandperformingartists.org 0 No Rank 2011-09-27 23:38:49
2849683 omas3332.sexdates1.info 0 No Rank 2011-09-27 23:38:54
2849684 carart.us 2 2236613 2011-09-27 23:38:58
2849685 feastofirishmusic.com 2 No Rank 2011-09-27 23:39:01
2849686 feasterfive.com 3 No Rank 2011-09-27 23:39:06
2849687 baito.bsasights21.xanga.com 0 2763 2011-09-27 23:39:07
2849688 fdrayservice.com 0 No Rank 2011-09-27 23:39:09
2849689 fdjewelry.com 1 No Rank 2011-09-27 23:39:10
2849690 fdga.free.fr 2 208 2011-09-27 23:39:15
2849691 fcfscooters.com 0 No Rank 2011-09-27 23:39:17
2849692 fcdardania.se 1 16482930 2011-09-27 23:39:21
2849693 vx670.com 0 No Rank 2011-09-27 23:39:24
2849694 games.bsasights21.xanga.com 0 2763 2011-09-27 23:39:25
2849695 fbcpeculiar.org 0 23014436 2011-09-27 23:39:28
2849696 fbnp.org 0 No Rank 2011-09-27 23:39:28
2849697 forestconrad12.livejournal.com 0 86 2011-09-27 23:39:29
2849698 fb2twitter.com 3 1398810 2011-09-27 23:39:31
2849699 fazzinophotography.com 0 No Rank 2011-09-27 23:39:33
2849700 laegaardenscamping.com 0 No Rank 2011-09-27 23:39:37
2849701 massages99416.sexdating2.info 0 No Rank 2011-09-27 23:39:38
2849702 favor-mag.com 2 No Rank 2011-09-27 23:39:41
2849703 pkhcc.com 3 No Rank 2011-09-27 23:39:44
2849704 teacherjoe.us 5 439286 2011-09-27 23:39:44
2849705 tropiciel.3poziom.pl 0 17253898 2011-09-27 23:39:47
2849706 fatduc.com 1 No Rank 2011-09-27 23:39:49
2849707 ftp.stagecast.com 5 1962690 2011-09-27 23:39:52
2849708 women.bsasights21.xanga.com 0 2763 2011-09-27 23:39:54
2849709 fattypop.com 1 7142058 2011-09-27 23:39:58
2849710 fastlanecomputers.com 1 15215416 2011-09-27 23:40:00
2849711 cashx.com 3 92358 2011-09-27 23:40:05
2849712 forestconrad12.insanejournal.com 0 5036 2011-09-27 23:40:07
2849713 fashioncollection.it 2 No Rank 2011-09-27 23:40:08
2849714 fascinatinghealthsecrets.com 0 No Rank 2011-09-27 23:40:13
2849715 fashion-magz.com 0 23697891 2011-09-27 23:40:14
2849716 farnostdeblin.cz 3 No Rank 2011-09-27 23:40:20
2849717 iachr.org 7 No Rank 2011-09-27 23:40:21
2849718 farmershayexchange.com 0 No Rank 2011-09-27 23:40:22
2849719 farfanjewelry.info 0 No Rank 2011-09-27 23:40:27
2849720 far-north-adventure.com 2 No Rank 2011-09-27 23:40:32
2849721 faribaultwrestling.com 2 No Rank 2011-09-27 23:40:35
2849722 fanthyttan.net 0 No Rank 2011-09-27 23:40:40
2849723 fantasyliterature.com 5 2186820 2011-09-27 23:40:42
2849724 wiebold.de 3 2226037 2011-09-27 23:40:47
2849725 fantasy-clay.com 1 11569601 2011-09-27 23:40:47
2849726 fantasieson5th.com 1 18790871 2011-09-27 23:40:53
2849727 famunet.com 0 6411368 2011-09-27 23:40:54
2849728 directory.how-arts-and-crafts.blogspot.com.pk 0 18664516 2011-09-27 23:40:54
2849729 familyworship.org 2 7165118 2011-09-27 23:40:58
2849730 familyfirstmed.com 0 No Rank 2011-09-27 23:41:03
2849731 family-system.ru 0 No Rank 2011-09-27 23:41:08
2849732 familieadvokatene.no 4 No Rank 2011-09-27 23:41:12
2849733 max.bsasights21.xanga.com 0 2763 2011-09-27 23:41:12
2849734 house.bsasights21.xanga.com 0 2763 2011-09-27 23:41:12
2849735 fallingleafmassage.com 1 No Rank 2011-09-27 23:41:18
2849736 katrinakaif52.blog.com 0 1087 2011-09-27 23:41:18
2849737 go2.bsasights21.xanga.com 0 2763 2011-09-27 23:41:20
2849738 falconjet-contract-pilots.net 0 22708609 2011-09-27 23:41:27
2849739 falconequipments.com 0 No Rank 2011-09-27 23:41:35
2849740 faithlutheranlapine.com 0 No Rank 2011-09-27 23:41:37
2849741 faithinanutshell.com 0 No Rank 2011-09-27 23:41:39
2849742 faith2faith.com 2 No Rank 2011-09-27 23:41:41
2849743 e-malt.com 3 2492958 2011-09-27 23:41:42
2849744 fairviewmennonite.com 0 No Rank 2011-09-27 23:41:48
2849745 facit-gruppe.de 0 No Rank 2011-09-27 23:41:49
2849746 facit-digital.com 4 16580964 2011-09-27 23:41:55
2849747 horrorhoundweekend.org 4 No Rank 2011-09-27 23:41:57
2849748 faces-photo.com 2 No Rank 2011-09-27 23:41:59
2849749 facilitatorstation.com 0 No Rank 2011-09-27 23:42:03
2849750 kixeye.com 5 30303 2011-09-27 23:42:08
2849751 facereadingbylin.com 3 3547114 2011-09-27 23:42:09
2849752 facepaintingbykarla.com 0 No Rank 2011-09-27 23:42:11
2849753 fabulousclassroom.com 2 297812 2011-09-27 23:42:15
2849754 f1page.com 3 13651812 2011-09-27 23:42:21
2849755 ezzetravel.com 3 2962647 2011-09-27 23:42:22
2849756 ezriders.ca 2 3861443 2011-09-27 23:42:27
2849757 lexwest.com 0 No Rank 2011-09-27 23:42:32
2849758 ezodeer.com 3 No Rank 2011-09-27 23:42:32
2849759 casecrate.com 0 9551178 2011-09-27 23:42:33
2849760 ezovolga.vo.uz 1 182 2011-09-27 23:42:33
2849761 point.bsasights52.onsugar.com 0 2275 2011-09-27 23:42:34
2849762 ezjiayu.com 0 No Rank 2011-09-27 23:42:43
2849763 eyeconikeyewear.com 0 12130579 2011-09-27 23:42:45
2849764 extremepestcontrol.com 1 No Rank 2011-09-27 23:42:47
2849765 extranet.awbb.be 3 1608600 2011-09-27 23:42:51
2849766 expressdigitalsystems.com 0 No Rank 2011-09-27 23:42:55
2849767 expresionlibre.org 4 1957713 2011-09-27 23:42:59
2849768 exposureconsult.net 0 No Rank 2011-09-27 23:43:02
2849769 explodelegion.com 2 No Rank 2011-09-27 23:43:03
2849770 explaysive.tv 2 No Rank 2011-09-27 23:43:08
2849771 revosys.net 3 14149599 2011-09-27 23:43:12
2849772 experiencelaser.com 0 No Rank 2011-09-27 23:43:13
2849773 tileoutletchicago.net 0 No Rank 2011-09-27 23:43:14
2849774 experienceactivetravel.com 2 23536561 2011-09-27 23:43:19
2849775 executivestrategygroup.com 1 8321903 2011-09-27 23:43:32
2849776 capc.org.cn 5 2462302 2011-09-27 23:43:34
2849777 executive.se 2 10132085 2011-09-27 23:43:36
2849778 dekminecraft.tk 0 No Rank 2011-09-27 23:43:37
2849779 execdate.com 0 No Rank 2011-09-27 23:43:39
2849780 excelvolleyball.net 0 No Rank 2011-09-27 23:43:40
2849781 weather.marketingandwebdesign.net 0 No Rank 2011-09-27 23:43:41
2849782 excelawningandshade.com 2 No Rank 2011-09-27 23:43:42
2849783 music.bsasights52.onsugar.com 0 2275 2011-09-27 23:43:44
2849784 ex-bazar.com 1 No Rank 2011-09-27 23:43:45
2849785 www2.bsasights52.onsugar.com 0 2275 2011-09-27 23:43:47
2849786 stabilitynetworks.com 3 18825760 2011-09-27 23:43:48
2849787 ewizesmoker.com 2 4516305 2011-09-27 23:43:50
2849788 evusbc.com 2 No Rank 2011-09-27 23:43:51
2849789 thesoftwarecentral.net 0 2030843 2011-09-27 23:43:51
2849790 cxt.bsasights52.onsugar.com 0 2275 2011-09-27 23:43:52
2849791 evropark.com 1 7543260 2011-09-27 23:43:56
2849792 everythingforadoption.com 2 6852523 2011-09-27 23:43:59
2849793 evergreenpowerandelectric.com 0 No Rank 2011-09-27 23:43:59
2849794 eventiveminds.com 0 17162140 2011-09-27 23:44:03
2849795 xaviercurry1231.livejournal.com 0 86 2011-09-27 23:44:07
2849796 evazquez.net 0 No Rank 2011-09-27 23:44:10
2849797 evavarga.com 2 No Rank 2011-09-27 23:44:13
2849798 evans4remax.com 0 No Rank 2011-09-27 23:44:16
2849799 eva-dry.com 2 4079708 2011-09-27 23:44:18
2849800 katrina-kaif63.tumblr.com 0 No Rank 2011-09-27 23:44:18
2849801 euspech.cz 0 6472251 2011-09-27 23:44:24
2849802 ventures.com 5 3607655 2011-09-27 23:44:27
2849803 eurostretchceiling.com 0 6713828 2011-09-27 23:44:28
2849804 bsasights52.onsugar.com 0 2275 2011-09-27 23:44:30
2849805 xaviercurry1231.insanejournal.com 0 5036 2011-09-27 23:44:32
2849806 eurofirany.info 3 No Rank 2011-09-27 23:44:32
2849807 europetraveldestinations.com 0 1953610 2011-09-27 23:44:33
2849808 moshenss.com 0 No Rank 2011-09-27 23:44:40
2849809 rog.qjwm.com 0 8952 2011-09-27 23:44:41
2849810 etranscription.ca 0 10471503 2011-09-27 23:44:42
2849811 etnodesign.lt 3 12949782 2011-09-27 23:44:47
2849812 dir.marketingandwebdesign.net 0 No Rank 2011-09-27 23:44:50
2849813 etnicochandra.com 0 No Rank 2011-09-27 23:44:53
2849814 spieleeck.de 4 2304827 2011-09-27 23:44:54
2849815 eternalchangeministries.org 1 15487755 2011-09-27 23:44:57
2849816 etatlibredorange.com 4 2110729 2011-09-27 23:44:58
2849817 kizi.ro 2 1011590 2011-09-27 23:45:00
2849818 estudiasotrabajas.com 0 25215228 2011-09-27 23:45:04
2849819 esteve-immobilier.com 0 25139132 2011-09-27 23:45:06
2849820 estetikatour.com 4 1000363 2011-09-27 23:45:08
2849821 este-lani.com 0 No Rank 2011-09-27 23:45:10
2849822 cidh.oas.org 7 53885 2011-09-27 23:45:14
2849823 espprosearch.com 0 No Rank 2011-09-27 23:45:17
2849824 espero.of.pl 1 117510 2011-09-27 23:45:18
2849825 eslickvoices.com 1 No Rank 2011-09-27 23:45:20
2849826 eskanconstruction.com 0 No Rank 2011-09-27 23:45:26
2849827 escortsdenver.net 0 No Rank 2011-09-27 23:45:34
2849828 i-cadeau.com 3 2075062 2011-09-27 23:45:36
2849829 escapellc.com 1 No Rank 2011-09-27 23:45:39
2849830 sunrisedreamrealty.com 1 No Rank 2011-09-27 23:45:39
2849831 sociopati.cz 0 No Rank 2011-09-27 23:45:42
2849832 escfs.org 3 No Rank 2011-09-27 23:45:43
2849833 77rp.com 0 No Rank 2011-09-27 23:45:49
2849834 bull.chat.nl 0 186557 2011-09-27 23:46:07
2849835 wow.bsasights52.onsugar.com 0 2275 2011-09-27 23:46:18
2849836 johannesburg.bsasights52.onsugar.com 0 2275 2011-09-27 23:46:40
2849837 chat.aman2.ro 0 2288761 2011-09-27 23:46:41
2849838 homepager.tripod.bsasights52.onsugar.com 0 2275 2011-09-27 23:46:42
2849839 joesphklein1229.bravejournal.com 0 13300 2011-09-27 23:46:55
2849840 earafat.blogspot.com 0 No Rank 2011-09-27 23:47:01
2849841 baito.bsasights52.onsugar.com 0 2275 2011-09-27 23:47:25
2849842 games.bsasights52.onsugar.com 0 2275 2011-09-27 23:47:44
2849843 katrinakaif00.blog.com 0 1087 2011-09-27 23:47:46
2849844 ruiteled.com 0 21569620 2011-09-27 23:48:04
2849845 women.bsasights52.onsugar.com 0 2275 2011-09-27 23:48:11
2849846 xaviercurry1231.edublogs.org 0 5154 2011-09-27 23:48:25
2849847 safelist.woodoggie.com 0 2411828 2011-09-27 23:48:39
2849848 easin-arafat.blogspot.com 0 No Rank 2011-09-27 23:48:44
2849849 autoshield.net 0 No Rank 2011-09-27 23:49:11
2849850 techfounder.net 3 1181285 2011-09-27 23:49:26
2849851 max.bsasights52.onsugar.com 0 2275 2011-09-27 23:49:28
2849852 house.bsasights52.onsugar.com 0 2275 2011-09-27 23:49:32
2849853 treville.marketingandwebdesign.net 0 No Rank 2011-09-27 23:49:39
2849854 go2.bsasights52.onsugar.com 0 2275 2011-09-27 23:49:41
2849855 84293.com 0 No Rank 2011-09-27 23:49:41
2849856 kristophermo123.livejournal.com 0 86 2011-09-27 23:49:43
2849857 stardoll.heartserguryintelaviv.wordpress.com 0 No Rank 2011-09-27 23:49:49
2849858 swetakrishna.com 0 8550996 2011-09-27 23:49:55
2849859 hugebox.blogspot.com 0 No Rank 2011-09-27 23:49:56
2849860 stardoll.heartserguryinisrael.wordpress.com 0 No Rank 2011-09-27 23:50:00
2849861 silismediation.com 3 No Rank 2011-09-27 23:50:01
2849862 katrina-kaif55.tumblr.com 0 No Rank 2011-09-27 23:50:10
2849863 neo-luddite.org 0 No Rank 2011-09-27 23:50:16
2849864 colomsat.net.co 3 13273675 2011-09-27 23:50:32
2849865 kristophermo123.insanejournal.com 0 5036 2011-09-27 23:50:35
2849866 lilatuellerdesigns.com 3 No Rank 2011-09-27 23:50:37
2849867 fauxbois.com 0 No Rank 2011-09-27 23:50:39
2849868 shain.marketingandwebdesign.net 0 No Rank 2011-09-27 23:50:43
2849869 teamallears.com 4 No Rank 2011-09-27 23:50:47
2849870 associazioni.comune.firenze.it 4 82442 2011-09-27 23:50:48
2849871 paymentprotectioninsurancedirect.co.uk 0 No Rank 2011-09-27 23:50:49
2849872 point.bsasights76.onsugar.com 0 2275 2011-09-27 23:50:52
2849873 mercedestrans.mobile.bg 0 14625 2011-09-27 23:51:12
2849874 plumbing-service-san-francisco.com 0 No Rank 2011-09-27 23:51:13
2849875 old.med.heartserguryinisrael.wordpress.com 0 No Rank 2011-09-27 23:51:20
2849876 soundoffinc.com 4 No Rank 2011-09-27 23:51:22
2849877 old.med.heartserguryintelaviv.wordpress.com 0 No Rank 2011-09-27 23:51:25
2849878 poohshouse.co.uk 1 No Rank 2011-09-27 23:51:28
2849879 erwincafe.com 4 4833206 2011-09-27 23:51:39
2849880 esaecapitalpartners.com 0 No Rank 2011-09-27 23:51:39
2849881 ericmatthews.com 1 No Rank 2011-09-27 23:51:42
2849882 ersrestore.com 1 No Rank 2011-09-27 23:51:44
2849883 erson.com 0 15714250 2011-09-27 23:51:45
2849884 erolger.com 0 No Rank 2011-09-27 23:51:48
2849885 easina.blogspot.com 0 No Rank 2011-09-27 23:51:48
2849886 erniewaite.com 0 No Rank 2011-09-27 23:51:55
2849887 castlemalting.com 3 1604283 2011-09-27 23:52:01
2849888 ernestoamaro.com 0 No Rank 2011-09-27 23:52:02
2849889 erlenhof.ch.vu 2 No Rank 2011-09-27 23:52:03
2849890 pages.marketingandwebdesign.net 0 No Rank 2011-09-27 23:52:07
2849891 erihimbol.com 0 No Rank 2011-09-27 23:52:09
2849892 music.bsasights76.onsugar.com 0 2275 2011-09-27 23:52:13
2849893 www2.bsasights76.onsugar.com 0 2275 2011-09-27 23:52:16
2849894 ericsackler.com 2 No Rank 2011-09-27 23:52:18
2849895 contactlens.co.uk 3 190612 2011-09-27 23:52:24
2849896 erichagstrom.com 2 6732356 2011-09-27 23:52:28
2849897 cxt.bsasights76.onsugar.com 0 2275 2011-09-27 23:52:33
2849898 erdmennekes.write2me.nl 1 262600 2011-09-27 23:52:33
2849899 hla.chaminade.edu 5 859160 2011-09-27 23:52:35
2849900 equinechic.com 3 No Rank 2011-09-27 23:52:44
2849901 equipmentwebservices.com 4 3731728 2011-09-27 23:52:45
2849902 equalitydance.nl 4 No Rank 2011-09-27 23:52:48
2849903 eptt.isma.ma 0 No Rank 2011-09-27 23:52:49
2849904 epsolutionsinc.com 0 No Rank 2011-09-27 23:52:51
2849905 frisco-center.com 4 No Rank 2011-09-27 23:52:52
2849906 epmapartment.com 0 No Rank 2011-09-27 23:53:02
2849907 eperils.com 2 9493661 2011-09-27 23:53:03
2849908 epc.ie 2 No Rank 2011-09-27 23:53:10
2849909 ep.gov.lk 3 4539821 2011-09-27 23:53:10
2849910 bsasights76.onsugar.com 0 2275 2011-09-27 23:53:13
2849911 eonmagazine.net 3 4217523 2011-09-27 23:53:15
2849912 eole-animations.com 0 No Rank 2011-09-27 23:53:15
2849913 envirocarbon.com.my 0 11038516 2011-09-27 23:53:21
2849914 entertainmentrealm.com 3 3766694 2011-09-27 23:53:24
2849915 entertainingdiversity.com 4 17460061 2011-09-27 23:53:27
2849916 enterprisecs.com 2 21553661 2011-09-27 23:53:29
2849917 statuesandgardenfurniture.com 0 4634543 2011-09-27 23:53:34
2849918 zhuntixinmai.net 0 17239290 2011-09-27 23:53:37
2849919 haven.adult-povidk.cz 0 20155069 2011-09-27 23:53:38
2849920 enkon.as 0 No Rank 2011-09-27 23:53:39
2849921 engelskabolag.se 2 13194821 2011-09-27 23:53:41
2849922 katrinakaif90.blog.com 0 1087 2011-09-27 23:53:42
2849923 onlinegpsworld.com 1 5264886 2011-09-27 23:53:43
2849924 enfant-palette.com 4 8537119 2011-09-27 23:53:47
2849925 dpfdeletepipes.com 0 No Rank 2011-09-27 23:53:48
2849926 enetro.com 0 No Rank 2011-09-27 23:53:49
2849927 enersys.lt 0 7420230 2011-09-27 23:53:52
2849928 search.verycd.com 0 514 2011-09-27 23:53:55
2849929 energozelbet.pl 1 No Rank 2011-09-27 23:53:55
2849930 endyradenim.com 0 No Rank 2011-09-27 23:53:56
2849931 mentorsistem.blogspot.com 0 No Rank 2011-09-27 23:53:59
2849932 emsersairductcleaning.com 0 No Rank 2011-09-27 23:54:03
2849933 encasuals.com 0 No Rank 2011-09-27 23:54:06
2849934 emporiummag.com 3 22617929 2011-09-27 23:54:11
2849935 books.premiumcookie.blogspot.com.pk 0 18664516 2011-09-27 23:54:15
2849936 samsungd8000tv.com 0 2132626 2011-09-27 23:54:15
2849937 employmentnetworkplus.com 2 No Rank 2011-09-27 23:54:17
2849938 employchoice.com 2 11254614 2011-09-27 23:54:19
2849939 clubdemojapan.com 1 23837533 2011-09-27 23:54:25
2849940 emoto.ru 2 No Rank 2011-09-27 23:54:26
2849941 emirateslinktechnology.com 2 10462438 2011-09-27 23:54:28
2849942 mb.marketingandwebdesign.net 0 No Rank 2011-09-27 23:54:33
2849943 my.controlscan.com 5 142282 2011-09-27 23:54:34
2849944 emersonvet.com 3 No Rank 2011-09-27 23:54:36
2849945 embellissementstmarc.com 1 No Rank 2011-09-27 23:54:44
2849946 emcotx.com 0 13816978 2011-09-27 23:54:47
2849947 whowhere.marketingandwebdesign.net 0 No Rank 2011-09-27 23:54:51
2849948 embed.nl 3 7538016 2011-09-27 23:54:51
2849949 emalecdesign.com 5 10487479 2011-09-27 23:54:51
2849950 emacesrilanka.com 3 7227648 2011-09-27 23:54:56
2849951 takarakuji.marketingandwebdesign.net 0 No Rank 2011-09-27 23:54:59
2849952 elvistheelf.com 0 No Rank 2011-09-27 23:55:01
2849953 em-geo.pl 0 17860555 2011-09-27 23:55:05
2849954 elvisringersen.com 1 No Rank 2011-09-27 23:55:11
2849955 elvinsrefrigeration.com 1 No Rank 2011-09-27 23:55:13
2849956 wow.bsasights76.onsugar.com 0 2275 2011-09-27 23:55:14
2849957 elrepositorderetail.com.ar 0 No Rank 2011-09-27 23:55:17
2849958 secure.jtsmith.com 0 4482879 2011-09-27 23:55:18
2849959 ellisideas.com 2 No Rank 2011-09-27 23:55:24
2849960 elliothuntmusic.com 0 No Rank 2011-09-27 23:55:29
2849961 kristophermo1230.edublogs.org 0 5154 2011-09-27 23:55:30
2849962 elkgroveyoga.com 2 13776768 2011-09-27 23:55:35
2849963 elizabethsjewelry.com 1 27805551 2011-09-27 23:55:40
2849964 homepager.tripod.bsasights76.onsugar.com 0 2275 2011-09-27 23:55:41
2849965 johannesburg.bsasights76.onsugar.com 0 2275 2011-09-27 23:55:42
2849966 elvie.tk 0 No Rank 2011-09-27 23:55:44
2849967 elizabethseton.org 3 No Rank 2011-09-27 23:55:46
2849968 eliteportraitdesign.com 2 No Rank 2011-09-27 23:55:49
2849969 elitte-best.myforum.ro 0 102222 2011-09-27 23:55:51
2849970 elitemodellook.hu 3 14938203 2011-09-27 23:55:57
2849971 elitedeprofesionales.com 0 No Rank 2011-09-27 23:56:01
2849972 eliteconceptcars.free.fr 0 208 2011-09-27 23:56:02
2849973 elissa-est.com 2 27008349 2011-09-27 23:56:12
2849974 elip-cafe.com 1 424346 2011-09-27 23:56:14
2849975 elihoward.com 3 5103446 2011-09-27 23:56:16
2849976 plr-downloads.com 2 2492896 2011-09-27 23:56:18
2849977 elfoto.hu 3 11158244 2011-09-27 23:56:28
2849978 elelmiszerrendeles.hu 2 4616538 2011-09-27 23:56:31
2849979 sterlingbusiness.com 0 No Rank 2011-09-27 23:56:33
2849980 elektryka.krakow.pl 1 9356940 2011-09-27 23:56:34
2849981 baito.bsasights76.onsugar.com 0 2275 2011-09-27 23:56:39
2849982 electronics4us.com 0 No Rank 2011-09-27 23:56:40
2849983 elegantdesigninc.ca 0 No Rank 2011-09-27 23:56:40
2849984 electronbox.com 0 No Rank 2011-09-27 23:56:44
2849985 electralive.net 3 3441111 2011-09-27 23:56:50
2849986 electcindyjones.com 1 No Rank 2011-09-27 23:56:53
2849987 games.bsasights76.onsugar.com 0 2275 2011-09-27 23:56:57
2849988 eldoradostables.co.za 0 17693163 2011-09-27 23:56:59
2849989 elderstowing.com 2 No Rank 2011-09-27 23:57:03
2849990 elanstudio.hu 2 11674819 2011-09-27 23:57:14
2849991 elacebuchebuilders.com 1 No Rank 2011-09-27 23:57:21
2849992 elandesign.ca 0 19365844 2011-09-27 23:57:24
2849993 eknathkadam.com 2 6349755 2011-09-27 23:57:29
2849994 ekoplast.krakow.pl 4 No Rank 2011-09-27 23:57:30
2849995 women.bsasights76.onsugar.com 0 2275 2011-09-27 23:57:33
2849996 ekipc.com 2 No Rank 2011-09-27 23:57:34
2849997 eissesexcavating.com 0 No Rank 2011-09-27 23:57:36
2849998 eirchamber.com 2 No Rank 2011-09-27 23:57:45
2849999 earafat01.blogspot.com 0 No Rank 2011-09-27 23:57:48